FENGYUN 1C DEB, 30272

Orbit data source: Space-Track

FENGYUN 1C DEB, 30272 is space debris in SSO originally from a launch on Mon, 10 May 1999 UTC launched from the Taiyaun Space Center, China (TSC). Fengyun 1C debris stems from the Chinese weather satellite Fengyun-1C, which was intentionally destroyed by a Chinese anti-satellite missile in 2007. This event dramatically increased the amount of space debris, with thousands of trackable fragments posing hazards to satellites and human spaceflight. The Fengyun 1C debris cloud has become a focal point in discussions about space sustainability and the need for international regulations to prevent the creation of new debris.

Loading next visibility...
Identifier
30272, 1999-025YH
Orbit
SSO
Country
Flag of CNCN / PRC
Related business
Manufacturer
Unknown
Mission
Spacecraft
Bus & Motor
Unknown
Mass
Unknown
Launch date (UTC)
1999-05-10 (27 years ago)
Launch vehicle
Unknown
Launch site
Taiyaun Space Center, China (TSC)
Object type
Payload
Rocket body
Debris
Shape & HBR
Unknown shape, 0.1 m
Radar Cross Section
Medium (>0.1 m² and <1 m²)

Expand to show TLE details & history
Last TLE update: 1 day ago

TLE from 1 day ago
0 FENGYUN 1C DEB
1 30272U 99025YH  26171.14541984  .00001288  00000-0  67362-3 0  9998
2 30272  98.8874 243.2416 0048484 284.6991  74.8811 14.15567782995355
Epoch: 2026-06-20T03:29Z
TLE epoch observation values (Epoch: 2026-06-20T03:29:24.274Z)
Latitude
-0.00004°
Longitude
-77.47378°
Altitude
834.312 km
Speed
7.44 km/s
True Right ascension
16h 12m 57s
True Declination
0° 00' 00"
Sunlit
Object was in full shadow at epoch
Visualization orbit readout
Latitude
Unknown
Longitude
Unknown
Altitude
Unknown
Speed
Unknown
Apparent Right ascension
Unknown
Apparent Declination
Unknown
Sunlit
N/A
Visualization observer readout
Local Sidereal Time
23:50:27
Azimuth
Unknown
Elevation
Unknown
Doppler factor
Unknown
Orbital elements
Apogee altitude
872.539 km
Perigee altitude
802.57 km
Semi-major axis
7,215.691 km
Eccentricity
0.00485
Inclination
98.8874°
RAAN
243.2416°
Arg. of periapsis
284.6991°
True anomaly
75.4183°
Mean anomaly
74.8811°
Eccentric anomaly
75.14961°
Mean motion
3.541 °/min
Orbital period
101.67 mins
BSTAR
0.00067362
Loading maneuver chart data...
Computing Atmospheric mass density...

Documentation

Showing up to 5 results
|